Regional Weather Roundup
Issued by NWS State College, PA

Current Version | Previous Version | Text Only | Print | Product List | Glossary On
Versions: 1 2 3 4 5 6 7 8 9 10 11 12 13 14 15 16 17 18 19 20 21 22 23 24 25 26 27 28 29 30 31 32 33 34 35 36 37 38 39 40 41 42 43 44 45 46 47 48 49 50
000
ASUS41 KCTP 201710
RWRCTP

REGIONAL WEATHER ROUNDUP
NATIONAL WEATHER SERVICE STATE COLLEGE PA
100 PM EDT SAT SEP 20 2014

Note: "fair" indicates few or no clouds below 12,000 feet with no
significant weather and/or obstructions to visibility.

* = STATION THAT DOES NOT REPORT PRECIPITATION /E.G. RAIN...SNOW...ETC/
    THUNDER OR FOG.

PAZ002>004-007>009-013>016-020>023-029>032-201800-
WESTERN PENNSYLVANIA

CITY           SKY/WX    TMP DP  RH WIND       PRES   REMARKS
ERIE           PTSUNNY   75  60  59 S14       30.00F
MEADVILLE      PTSUNNY   71  59  65 SW10      30.06F
FRANKLIN*      CLOUDY    72  59  64 SW12      30.10S
NEW CASTLE     NOT AVBL
BEAVER COUNTY  MOSUNNY   75  61  60 SW9       30.08F
BUTLER*        CLOUDY    75  61  60 SW9G16    30.10F
PITTSBURGH INT PTSUNNY   74  59  59 SW10      30.09F
PITTSBURGH     MOSUNNY   76  57  51 SW15G22   30.10F
INDIANA*       PTSUNNY   75  59  57 SW8G17    30.15F
LATROBE        MOSUNNY   75  61  60 SW12G23   30.13F
WASHINGTON CO* MOSUNNY   75  61  60 SW13      30.11F
$$

PAZ004>006-010>012-017>019-024>028-033>037-041-042-045-046-049>053-201800-
CENTRAL PENNSYLVANIA

CITY           SKY/WX    TMP DP  RH WIND       PRES   REMARKS
BRADFORD       PTSUNNY   67  57  70 SW12G18   30.10F
DUBOIS         PTSUNNY   71  58  63 S12G21    30.10F
CLEARFIELD     PTSUNNY   73  59  61 S8G18     30.12F
JOHNSTOWN      MOSUNNY   72  55  55 SW8G21    30.16F
ALTOONA        SUNNY     73  58  59 S12       30.16F
STATE COLLEGE  PTSUNNY   68  59  73 SW9       30.15F
WILLIAMSPORT   MOSUNNY   72  58  61 S9G17     30.14F
SELINSGROVE    PTSUNNY   70  58  65 S8        30.17F
FT INDIANTOWN  MOSUNNY   75  61  60 S10       30.18F
CAPITAL CITY   PTSUNNY   75  57  53 S9        30.18F
HARRISBURG     PTSUNNY   79  58  48 S7        30.17F
YORK           SUNNY     76  59  55 SW10G17   30.19F
$$

PAZ038>040-043-044-047-048-054-055-060>062-067>071-201800-
EASTERN PENNSYLVANIA

CITY           SKY/WX    TMP DP  RH WIND       PRES   REMARKS
SCRANTON       PTSUNNY   69  56  62 SW13G20   30.18F
MOUNT POCONO   CLOUDY    64  55  72 S12       30.23F
ALLENTOWN      MOSUNNY   73  56  54 S9G17     30.21F
QUAKERTOWN*    PTSUNNY   73  57  56 S8        30.23F
READING        MOSUNNY   77  59  53 S13       30.19F
LANCASTER      MOSUNNY   74  58  57 S10       30.20F
COATESVILLE    PTSUNNY   72  59  64 E9        30.23F
POTTSTOWN      PTSUNNY   73  58  59 S8        30.23F
BLUE BELL      PTSUNNY   75  59  57 S5        30.22F
DOYLESTOWN     PTSUNNY   73  57  57 S9        30.22F
WILLOW GROVE   NOT AVBL
NORTH PHILA    PTSUNNY   77  54  44 VRB6      30.24F
PHILADELPHIA   MOSUNNY   76  58  53 S8        30.22F
$$


USA.gov is the U.S. government's official web portal to all federal, state and local government web resources and services.